User: anonymous   Login
Location: Caltech
(34.1382°N, 118.1253°W)
Time: 10:29:53
(UTC-07:00)
Language:

SL-16 R/B - Orbit

View from above orbital plane
View from above orbital plane
View from above satellite
View from above satellite

Ground track
Ground track

The orbit data is extracted from the following two-line orbital elements,

1 31793U 07029B   15186.20154637 -.00000032  00000-0  80579-5 0  9990
2 31793 070.9775 086.7373 0002093 266.4062 249.9185 14.14338645413908
Epoch (UTC): 05 July 2015 04:50:13
Eccentricity: 0.0002093
inclination: 70.9775°
perigee height: 843 km
apogee height: 846 km
right ascension of ascending node: 86.7373°
argument of perigee: 266.4062°
revolutions per day: 14.14338645
mean anomaly at epoch: 249.9185°
orbit number at epoch: 41390

The dashed part of the orbit path shows where the satellite is in the earth's shadow,  

DLR